Location: Observatoire
(46.1952°N, 5.3391°E)
Time: 01:57:22
(UTC+02:00)

Gurwin Techsat 1B - Visible Passes

Search period start: 24 April 2024 00:00
Search period end: 04 May 2024 00:00
Orbit: 811 x 812 km, 98.9° (Epoch: 23 April)

Date Brightness Start Highest point End Pass type
(mag) Time Alt. Az. Time Alt. Az. Time Alt. Az.
24 Apr 10.8 04:07:58 10° NE 04:11:53 20° E 04:15:47 10° SE visible
24 Apr 8.8 05:46:55 10° N 05:52:10 60° WNW 05:57:22 10° SSW visible
25 Apr 11.2 03:46:05 10° ENE 03:48:23 13° E 03:50:39 10° ESE visible
25 Apr 8.7 05:23:39 10° NNE 05:29:00 89° E 05:34:19 10° SSW visible
26 Apr 9.2 05:00:31 10° NNE 05:05:46 57° ESE 05:10:59 10° S visible
27 Apr 10.0 04:37:33 10° NNE 04:42:27 36° E 04:47:19 10° SSE visible
28 Apr 10.6 04:14:51 10° NE 04:19:04 23° E 04:23:14 10° SE visible
28 Apr 8.9 05:54:04 10° N 05:59:14 53° WNW 06:04:22 10° SW visible
29 Apr 11.1 03:52:40 10° NE 03:55:34 15° E 03:58:27 10° ESE visible
29 Apr 8.6 05:30:45 10° NNE 05:36:06 81° WNW 05:41:25 10° SSW visible
30 Apr 9.0 05:07:34 10° NNE 05:12:53 65° ESE 05:18:09 10° S visible
01 May 9.8 04:44:33 10° NNE 04:49:35 41° E 04:54:34 10° SSE visible
02 May 10.5 04:21:45 10° NE 04:26:12 26° E 04:30:37 10° SSE visible
03 May 11.1 03:59:22 10° NE 04:02:44 17° E 04:06:05 10° SE visible
03 May 8.7 05:37:51 10° N 05:43:10 72° WNW 05:48:27 10° SSW visible
